This is the latest recevied weather packets stored in our database for station/object PY3MO-11. If no packets are shown the sender has not sent any weather packets the latest 1 day(s).
| Time | Temp. | Humidity | Pressure | Rain* | Wind** | Luminosity | Snow |
|---|---|---|---|---|---|---|---|
| 1778120637 | 19.44° C | 80% | 1015.9 hPa | 0 mm | - | - | - |
| 1778120337 | 19.44° C | 80% | 1016 hPa | 0 mm | - | - | - |
| 1778120036 | 19.44° C | 80% | 1015.9 hPa | 0 mm | - | - | - |
| 1778119736 | 19.44° C | 80% | 1016 hPa | 0 mm | - | - | - |
| 1778119138 | 19.44° C | 79% | 1016.2 hPa | 0 mm | - | - | - |
| 1778118838 | 19.44° C | 79% | 1016.3 hPa | 0 mm | - | - | - |
| 1778118538 | 19.44° C | 80% | 1016.3 hPa | 0 mm | - | - | - |
| 1778117937 | 19.44° C | 82% | 1016.1 hPa | 0 mm | - | - | - |
| 1778117637 | 18.89° C | 82% | 1016.2 hPa | 0 mm | - | - | - |
| 1778117338 | 18.89° C | 83% | 1016.3 hPa | 0 mm | - | - | - |
| 1778117038 | 18.89° C | 83% | 1016.2 hPa | 0 mm | - | - | - |
| 1778116738 | 18.89° C | 82% | 1016.4 hPa | 0 mm | - | - | - |
| 1778115537 | 19.44° C | 81% | 1016.3 hPa | 0 mm | - | - | - |
| 1778115237 | 19.44° C | 81% | 1016.4 hPa | 0 mm | - | - | - |
| 1778114937 | 19.44° C | 81% | 1016.4 hPa | 0 mm | - | - | - |
| 1778114637 | 19.44° C | 82% | 1016.6 hPa | 0 mm | - | - | - |
| 1778114036 | 18.89° C | 83% | 1016.5 hPa | 0 mm | - | - | - |
| 1778113738 | 18.89° C | 83% | 1016.6 hPa | 0 mm | - | - | - |
| 1778113138 | 18.89° C | 83% | 1016.7 hPa | 0 mm | - | - | - |
| 1778112838 | 18.89° C | 83% | 1016.5 hPa | 0 mm | - | - | - |
| 1778110737 | 19.44° C | 80% | 1016.7 hPa | 0 mm | - | - | - |
| 1778108638 | 20.56° C | 78% | 1016.5 hPa | 0 mm | - | - | - |
| 1778106837 | 20.56° C | 76% | 1016.7 hPa | 0 mm | - | - | - |
| 1778106537 | 20.56° C | 76% | 1016.8 hPa | 0 mm | - | - | - |
| 1778104737 | 21.67° C | 72% | 1016.6 hPa | 0 mm | - | - | - |
* Rain latest hour (hover to see other rain measurements)
** Current wind speed in m/s (hover to see current wind gust speed)